Radiation Dose at Monitoring Post of Fukushima Daini Nuclear Power Station
Date,Time,MP-1(microSv/h),MP-2(microSv/h),MP-3(microSv/h),MP-4(microSv/h),MP-5(microSv/h),MP-6(microSv/h),MP-7(microSv/h),Wind Direction,Wind Velocity(m/s),Rain
2016/07/04,00:00,0.407,0.244,0.424,0.387,0.373,0.197,0.169,south-southeast,3.4,No
2016/07/04,00:10,0.404,0.244,0.421,0.388,0.370,0.198,0.168,south-southeast,3.6,No
2016/07/04,00:20,0.409,0.243,0.424,0.385,0.372,0.199,0.169,south-southeast,3.3,No
2016/07/04,00:30,0.406,0.243,0.424,0.390,0.373,0.197,0.169,south,3.9,No
2016/07/04,00:40,0.405,0.244,0.421,0.389,0.369,0.197,0.169,south,3.5,No
2016/07/04,00:50,0.407,0.243,0.425,0.386,0.373,0.197,0.168,south,3.1,No
2016/07/04,01:00,0.403,0.243,0.422,0.389,0.371,0.199,0.170,south,2.8,No
2016/07/04,01:10,0.409,0.242,0.422,0.387,0.371,0.198,0.169,south,3.6,No
2016/07/04,01:20,0.407,0.245,0.425,0.388,0.371,0.197,0.170,south,3.3,No
2016/07/04,01:30,0.404,0.243,0.420,0.390,0.369,0.198,0.170,south,3.7,No
2016/07/04,01:40,0.408,0.244,0.425,0.386,0.373,0.197,0.168,south,3.5,No
2016/07/04,01:50,0.405,0.243,0.423,0.388,0.370,0.198,0.169,south-southwest,4.4,No
2016/07/04,02:00,0.407,0.243,0.422,0.387,0.371,0.198,0.169,south-southwest,4.2,No
2016/07/04,02:10,0.407,0.244,0.424,0.386,0.373,0.196,0.170,south,4.0,No
2016/07/04,02:20,0.403,0.242,0.422,0.389,0.370,0.198,0.170,south,4.2,No
2016/07/04,02:30,0.407,0.244,0.425,0.385,0.375,0.198,0.169,south,4.0,No
2016/07/04,02:40,0.404,0.243,0.426,0.390,0.370,0.197,0.170,south,3.9,No
2016/07/04,02:50,0.408,0.243,0.421,0.387,0.372,0.197,0.170,south,4.2,No
2016/07/04,03:00,0.407,0.243,0.426,0.387,0.372,0.197,0.169,south,4.6,No
2016/07/04,03:10,0.403,0.244,0.423,0.390,0.370,0.198,0.168,south,4.9,No
2016/07/04,03:20,0.408,0.244,0.421,0.385,0.373,0.198,0.170,south-southwest,5.9,No
2016/07/04,03:30,0.404,0.243,0.426,0.388,0.370,0.198,0.169,south,7.2,No
2016/07/04,03:40,0.407,0.243,0.420,0.387,0.372,0.197,0.169,south,6.3,No
2016/07/04,03:50,0.407,0.244,0.424,0.387,0.372,0.196,0.169,south,6.4,No
2016/07/04,04:00,0.406,0.243,0.422,0.389,0.368,0.198,0.169,south,6.0,No
2016/07/04,04:10,0.409,0.244,0.422,0.385,0.372,0.196,0.169,south,5.9,No
2016/07/04,04:20,0.404,0.242,0.423,0.388,0.369,0.197,0.168,south,7.8,No
2016/07/04,04:30,0.406,0.244,0.421,0.388,0.369,0.196,0.168,south-southwest,9.0,No
2016/07/04,04:40,0.405,0.244,0.421,0.385,0.372,0.197,0.170,south,7.4,No
2016/07/04,04:50,0.404,0.242,0.424,0.390,0.368,0.198,0.169,south,6.5,No
2016/07/04,05:00,0.407,0.245,0.420,0.386,0.374,0.196,0.170,south,5.3,No
2016/07/04,05:10,0.406,0.242,0.423,0.386,0.372,0.196,0.169,south,5.0,No
2016/07/04,05:20,0.405,0.242,0.425,0.390,0.368,0.198,0.168,south-southwest,4.3,No
2016/07/04,05:30,0.409,0.244,0.420,0.384,0.373,0.197,0.170,south-southwest,4.6,No
2016/07/04,05:40,0.405,0.241,0.422,0.387,0.371,0.198,0.169,south,4.8,No
2016/07/04,05:50,0.404,0.245,0.423,0.388,0.369,0.198,0.168,south-southwest,5.6,No
2016/07/04,06:00,0.408,0.246,0.420,0.385,0.373,0.197,0.170,south,3.3,No
2016/07/04,06:10,0.405,0.242,0.425,0.386,0.372,0.197,0.170,south-southeast,3.6,No
2016/07/04,06:20,0.405,0.243,0.424,0.387,0.368,0.197,0.169,south-southeast,3.9,No
2016/07/04,06:30,0.409,0.243,0.419,0.385,0.372,0.197,0.171,south,5.4,No
2016/07/04,06:40,0.405,0.242,0.423,0.388,0.371,0.197,0.169,south,4.7,No
2016/07/04,06:50,0.405,0.244,0.423,0.390,0.368,0.196,0.168,south,5.8,No
2016/07/04,07:00,0.408,0.244,0.422,0.386,0.371,0.196,0.169,south-southwest,5.4,No
2016/07/04,07:10,0.406,0.242,0.421,0.383,0.374,0.198,0.169,south-southwest,4.8,No
2016/07/04,07:20,0.402,0.243,0.425,0.389,0.370,0.198,0.169,south-southwest,3.6,No
2016/07/04,07:30,0.406,0.244,0.424,0.387,0.367,0.196,0.168,south-southwest,2.5,No
2016/07/04,07:40,0.409,0.244,0.418,0.385,0.372,0.198,0.169,-,CALM,No
2016/07/04,07:50,0.405,0.242,0.420,0.382,0.374,0.198,0.169,northeast,1.1,No
2016/07/04,08:00,0.402,0.242,0.425,0.385,0.371,0.197,0.169,east-southeast,1.4,No
2016/07/04,08:10,0.404,0.242,0.424,0.390,0.371,0.197,0.168,east-northeast,1.4,No
2016/07/04,08:20,0.408,0.243,0.420,0.390,0.369,0.196,0.167,-,CALM,No
2016/07/04,08:30,0.407,0.245,0.420,0.386,0.367,0.197,0.168,southeast,2.5,No
2016/07/04,08:40,0.404,0.244,0.420,0.384,0.370,0.197,0.170,south-southeast,2.3,No
2016/07/04,08:50,0.402,0.244,0.425,0.383,0.374,0.198,0.170,southeast,2.8,No
2016/07/04,09:00,0.405,0.243,0.426,0.383,0.375,0.197,0.169,east-southeast,2.6,No
2016/07/04,09:10,0.408,0.244,0.423,0.383,0.375,0.199,0.169,southeast,1.8,No
2016/07/04,09:20,0.409,0.245,0.421,0.385,0.373,0.199,0.169,east-northeast,1.9,No
2016/07/04,09:30,0.406,0.244,0.421,0.385,0.370,0.199,0.169,south-southeast,1.4,No
2016/07/04,09:40,0.406,0.244,0.422,0.387,0.370,0.198,0.168,south-southeast,1.5,No
2016/07/04,09:50,0.406,0.245,0.420,0.386,0.371,0.197,0.169,southeast,1.1,No
2016/07/04,10:00,0.403,0.244,0.422,0.386,0.372,0.198,0.169,southeast,1.3,No
2016/07/04,10:10,0.404,0.245,0.419,0.387,0.372,0.198,0.170,east-southeast,2.2,No
2016/07/04,10:20,0.405,0.245,0.421,0.387,0.370,0.199,0.169,southeast,3.4,No
2016/07/04,10:30,0.405,0.244,0.421,0.388,0.371,0.198,0.169,south-southeast,4.2,No
2016/07/04,10:40,0.404,0.244,0.421,0.388,0.370,0.199,0.168,southeast,3.0,No
2016/07/04,10:50,0.404,0.244,0.421,0.386,0.369,0.197,0.169,southeast,3.7,No
2016/07/04,11:00,0.408,0.243,0.421,0.387,0.370,0.197,0.168,south-southeast,3.4,No
2016/07/04,11:10,0.409,0.243,0.422,0.387,0.370,0.198,0.170,south,2.5,No
2016/07/04,11:20,0.408,0.243,0.428,0.389,0.369,0.198,0.170,south-southwest,2.5,No
2016/07/04,11:30,0.404,0.243,0.426,0.391,0.369,0.198,0.169,south-southwest,2.4,No
2016/07/04,11:40,0.402,0.241,0.425,0.389,0.368,0.198,0.170,south,1.5,No
2016/07/04,11:50,0.407,0.242,0.422,0.388,0.370,0.199,0.169,south,1.1,No
2016/07/04,12:00,0.412,0.245,0.421,0.386,0.370,0.199,0.171,south-southeast,1.0,No
2016/07/04,12:10,0.409,0.247,0.418,0.385,0.370,0.198,0.170,-,CALM,No
2016/07/04,12:20,0.404,0.243,0.423,0.385,0.375,0.199,0.169,-,CALM,No
2016/07/04,12:30,0.404,0.243,0.428,0.391,0.374,0.198,0.169,south-southeast,0.9,No
2016/07/04,12:40,0.410,0.243,0.425,0.392,0.372,0.199,0.170,-,CALM,No
2016/07/04,12:50,0.409,0.242,0.424,0.389,0.370,0.198,0.170,-,CALM,No
2016/07/04,13:00,0.404,0.246,0.421,0.385,0.369,0.196,0.169,-,CALM,No
2016/07/04,13:10,0.404,0.245,0.419,0.386,0.370,0.198,0.169,west-northwest,0.6,No
2016/07/04,13:20,0.409,0.244,0.424,0.387,0.369,0.198,0.171,southwest,0.7,No
2016/07/04,13:30,0.410,0.243,0.427,0.392,0.375,0.200,0.170,south-southwest,0.9,No
2016/07/04,13:40,0.408,0.242,0.425,0.391,0.375,0.197,0.170,south-southwest,1.4,No
2016/07/04,13:50,0.404,0.243,0.422,0.389,0.374,0.198,0.169,southwest,1.0,No
2016/07/04,14:00,0.402,0.243,0.421,0.386,0.372,0.198,0.168,south-southeast,1.6,No
2016/07/04,14:10,0.403,0.244,0.420,0.386,0.371,0.198,0.171,southeast,1.9,No
2016/07/04,14:20,0.407,0.243,0.419,0.385,0.369,0.197,0.170,southeast,1.7,No
2016/07/04,14:30,0.410,0.243,0.421,0.384,0.371,0.199,0.170,south-southeast,1.3,No
2016/07/04,14:40,0.410,0.245,0.423,0.389,0.369,0.199,0.169,south,0.7,No
2016/07/04,14:50,0.406,0.243,0.428,0.391,0.370,0.200,0.169,west-southwest,0.5,No
2016/07/04,15:00,0.407,0.244,0.426,0.390,0.371,0.198,0.169,southwest,1.4,No
2016/07/04,15:10,0.404,0.244,0.424,0.389,0.370,0.198,0.168,south-southwest,1.4,No
2016/07/04,15:20,0.402,0.243,0.421,0.387,0.370,0.197,0.168,southwest,1.4,No
2016/07/04,15:30,0.404,0.242,0.421,0.386,0.371,0.199,0.169,southwest,1.7,No
2016/07/04,15:40,0.409,0.243,0.421,0.384,0.368,0.200,0.170,south-southwest,1.3,No
2016/07/04,15:50,0.411,0.244,0.426,0.390,0.375,0.199,0.170,south-southwest,1.7,No
2016/07/04,16:00,0.406,0.245,0.426,0.390,0.377,0.198,0.168,south-southwest,1.6,No
2016/07/04,16:10,0.404,0.243,0.425,0.390,0.375,0.197,0.169,west-southwest,1.5,No
2016/07/04,16:20,0.406,0.242,0.421,0.388,0.372,0.199,0.171,west-northwest,2.0,No
2016/07/04,16:30,0.410,0.243,0.420,0.386,0.371,0.199,0.170,northwest,1.4,No
2016/07/04,16:40,0.409,0.245,0.423,0.390,0.369,0.198,0.169,northwest,1.3,No
2016/07/04,16:50,0.406,0.245,0.430,0.392,0.372,0.197,0.170,north-northwest,1.6,No
2016/07/04,17:00,0.405,0.245,0.424,0.390,0.376,0.198,0.169,north-northwest,2.5,No
2016/07/04,17:10,0.407,0.243,0.422,0.387,0.375,0.199,0.170,north-northwest,2.9,No
2016/07/04,17:20,0.413,0.243,0.422,0.387,0.371,0.198,0.169,north,1.2,No
2016/07/04,17:30,0.408,0.245,0.423,0.388,0.370,0.198,0.169,north-northeast,1.1,No
2016/07/04,17:40,0.404,0.244,0.427,0.392,0.369,0.198,0.170,north-northwest,1.1,No
2016/07/04,17:50,0.406,0.245,0.426,0.391,0.373,0.199,0.170,north-northwest,0.6,Yes
2016/07/04,18:00,0.409,0.245,0.424,0.387,0.377,0.199,0.170,northwest,0.6,No
2016/07/04,18:10,0.407,0.246,0.420,0.387,0.373,0.197,0.171,east,1.0,No
2016/07/04,18:20,0.405,0.245,0.429,0.391,0.371,0.198,0.170,east,0.7,No
2016/07/04,18:30,0.408,0.244,0.426,0.391,0.370,0.199,0.169,south,1.4,No
2016/07/04,18:40,0.410,0.246,0.424,0.388,0.375,0.198,0.170,east-southeast,1.0,No
2016/07/04,18:50,0.407,0.245,0.422,0.387,0.374,0.198,0.171,east,1.5,No
2016/07/04,19:00,0.409,0.244,0.427,0.392,0.371,0.198,0.168,east,1.3,No
2016/07/04,19:10,0.411,0.246,0.427,0.389,0.371,0.198,0.172,east,0.9,Yes
2016/07/04,19:20,0.407,0.245,0.422,0.386,0.375,0.197,0.171,north-northeast,0.8,Yes
2016/07/04,19:30,0.403,0.245,0.425,0.388,0.374,0.199,0.169,north-northeast,1.5,No
2016/07/04,19:40,0.410,0.244,0.428,0.392,0.370,0.198,0.171,north-northeast,1.9,No
2016/07/04,19:50,0.408,0.246,0.423,0.389,0.373,0.198,0.170,north,4.4,Yes
2016/07/04,20:00,0.405,0.246,0.422,0.386,0.375,0.199,0.169,north,5.8,No
2016/07/04,20:10,0.408,0.243,0.426,0.390,0.371,0.199,0.170,north-northeast,8.5,No
2016/07/04,20:20,0.408,0.245,0.426,0.387,0.369,0.197,0.170,north-northeast,9.8,No
2016/07/04,20:30,0.406,0.243,0.422,0.387,0.373,0.198,0.169,north,7.0,Yes
2016/07/04,20:40,0.410,0.243,0.426,0.388,0.371,0.198,0.170,north,7.2,Yes
2016/07/04,20:50,0.407,0.246,0.423,0.389,0.371,0.197,0.170,north,5.3,Yes
2016/07/04,21:00,0.407,0.244,0.422,0.386,0.375,0.199,0.170,north,7.2,Yes
2016/07/04,21:10,0.409,0.245,0.427,0.390,0.372,0.198,0.170,north,6.7,Yes
2016/07/04,21:20,0.406,0.245,0.425,0.390,0.376,0.198,0.169,north,8.3,Yes
2016/07/04,21:30,0.407,0.245,0.422,0.387,0.371,0.199,0.170,north,6.5,Yes
2016/07/04,21:40,0.409,0.247,0.428,0.391,0.371,0.198,0.171,north,7.1,Yes
2016/07/04,21:50,0.408,0.245,0.422,0.389,0.374,0.200,0.171,north,6.2,No
2016/07/04,22:00,0.409,0.246,0.428,0.391,0.372,0.198,0.171,north,6.5,No
2016/07/04,22:10,0.406,0.244,0.426,0.389,0.375,0.198,0.168,north,6.7,Yes
2016/07/04,22:20,0.409,0.245,0.424,0.388,0.372,0.198,0.171,north,5.1,Yes
2016/07/04,22:30,0.407,0.245,0.426,0.391,0.374,0.197,0.170,north,7.0,Yes
2016/07/04,22:40,0.408,0.244,0.424,0.388,0.371,0.199,0.170,north,5.3,No
2016/07/04,22:50,0.409,0.246,0.425,0.391,0.370,0.198,0.171,north,6.3,No
2016/07/04,23:00,0.406,0.243,0.427,0.390,0.373,0.199,0.170,north,5.7,Yes
2016/07/04,23:10,0.411,0.245,0.421,0.388,0.370,0.198,0.169,north,5.8,Yes
2016/07/04,23:20,0.407,0.245,0.428,0.390,0.374,0.197,0.170,north,4.8,Yes
2016/07/04,23:30,0.409,0.244,0.423,0.387,0.371,0.200,0.171,north,5.9,Yes
2016/07/04,23:40,0.409,0.245,0.426,0.390,0.373,0.197,0.172,north,4.8,Yes
2016/07/04,23:50,0.408,0.245,0.425,0.391,0.372,0.199,0.170,north,4.0,Yes
